{"data":{"norad_id":62196,"epoch":"2026-05-24T11:13:50.359008Z","epoch_age_seconds":114205,"freshness":"FRESH","line1":"1 62196U 24229E   26144.46794397  .00013091  00000+0  48415-3 0  9997","line2":"2 62196  43.0032 170.0897 0001691 274.0012  86.0647 15.27597317 82528","mean_motion":15.27597317,"eccentricity":0.0001691,"inclination_deg":43.0032,"raan_deg":170.0897,"arg_perigee_deg":274.0012,"mean_anomaly_deg":86.0647,"bstar":0.00048415,"rev_number":8252,"period_min":94.265680096111,"perigee_km":481.83702540122,"apogee_km":484.15746100227,"semimajor_km":6861.1342432017,"source":"CELESTRAK","updated_at":"2026-05-25T13:38:19.606536Z"}}